CAPE
0 0 0 0 0 0 0 0 0 0 0 0 0 0 0 0 0 0 0 0 0 0 0 0 0 0 0
0 0 0 0 0 0 0 0 0 0 0 0 0 0 0 0 0 0 0 0 0 0 0 0 0 0 1
0 0 0 0 0 0 0 0 0 0 0 0 0 0 0 0 0 0 0 0 0 0 0 0 1 1 2
0 0 0 0 0 0 0 0 0 0 0 0 0 0 0 0 0 0 0 0 0 0 0 0 1 1 2
0 0 0 0 0 0 0 0 0 0 0 0 0 0 0 0 0 0 0 0 0 1 2 1 1 1 1
0 0 0 0 0 0 0 0 0 0 0 0 0 0 0 0 0 0 0 0 1 1 1 2 2 1 3
0 0 0 0 0 0 0 0 0 0 0 0 0 0 0 0 0 1 0 0 0 0 0 0 0 0 1
0 0 0 0 0 0 0 0 0 0 0 0 0 0 0 0 0 0 0 0 0 0 0 0 2 1 1
0 0 0 0 0 0 0 0 0 0 0 0 0 0 0 0 0 0 0 0 0 0 0 1 1 0 0
0 0 0 0 0 0 0 0 0 0 0 0 0 0 0 0 0 0 0 0 0 0 1 2 2 1 0
0 0 0 0 0 0 0 0 0 0 0 0 0 0 0 0 0 0 0 0 0 0 0 0 0 1 0
0 0 0 0 0 0 0 0 0 0 0 0 0 0 0 0 0 0 0 0 0 0 0 0 0 0 0
0 0 0 0 0 0 0 0 0 0 0 0 0 0 0 0 0 0 0 0 0 0 0 0 0 0 0
0 0 0 0 0 0 0 0 0 0 0 0 0 0 0 0 0 0 0 0 0 0 0 0 0 0 0
0 0 0 0 0 0 0 0 0 0 0 0 0 0 0 0 0 0 0 0 0 0 0 0 0 0 0
0 0 0 0 0 0 0 0 0 0 0 0 0 0 0 0 0 0 0 0 0 0 0 0 0 0 0
0 0 0 0 0 0 0 0 0 0 0 0 0 0 0 0 0 0 0 0 0 0 0 0 0 0 0
CIN
0 0 0 0 0 0 0 0 0 0 0 0 0 0 0 0 0 0 0 0 0 0 0 0 0 0 0
0 0 0 0 0 0 0 0 0 0 0 0 0 0 0 0 0 0 0 0 0 0 0 0 0 0 0
0 0 0 0 0 0 0 0 0 0 0 0 0 0 0 0 0 0 0 0 0 0 0 0 0 0 0
0 0 0 0 0 0 0 0 0 0 0 0 0 0 0 0 0 0 0 0 0 0 0 0 0 0 0
0 0 0 0 0 0 0 0 0 0 0 0 0 0 0 0 0 0 0 0 0 0 0 0 0 0 0
0 0 0 0 0 0 0 0 0 0 0 0 0 0 0 0 0 0 0 0 0 0 0 0 0 0 0
0 0 0 0 0 0 0 0 0 0 0 0 0 0 0 0 0 0 0 0 0 0 0 0 0 0 0
0 0 0 0 0 0 0 0 0 0 0 0 0 0 0 0 0 0 0 0 0 0 0 0 0 0 0
0 0 0 0 0 0 0 0 0 0 0 0 0 0 0 0 0 0 0 0 0 0 0 0 0 0 -1
0 0 0 0 0 0 0 0 0 0 0 0 0 0 0 0 0 0 0 0 0 0 0 0 0 -1 0
0 0 0 0 0 0 0 0 0 0 0 0 0 0 0 0 0 0 0 0 0 0 0 0 0 0 0
0 0 0 0 0 0 0 0 0 0 0 0 0 0 0 0 0 0 0 0 0 0 0 0 0 0 0
0 0 0 0 0 0 0 0 0 0 0 0 0 0 0 0 0 0 0 0 0 0 0 0 0 0 0
0 0 0 0 0 0 0 0 0 0 0 0 0 0 0 0 0 0 0 0 0 0 0 0 0 0 0
0 0 0 0 0 0 0 0 0 0 0 0 0 0 0 0 0 0 0 0 0 0 0 0 0 0 0
0 0 0 0 0 0 0 0 0 0 0 0 0 0 0 0 0 0 0 0 0 0 0 0 0 0 0
0 0 0 0 0 0 0 0 0 0 0 0 0 0 0 0 0 0 0 0 0 0 0 0 0 0 0
Wind_Speed
16 17 17 19 20 20 21 21 22 22 20 18 18 19 20 20 20 20 21 22 24 24 24 25 25 26 27
15 16 17 18 19 19 20 21 22 22 21 20 20 20 20 20 19 20 20 21 22 22 23 24 24 24 25
13 14 15 16 17 18 19 19 20 21 22 21 21 21 20 19 20 20 20 22 23 23 22 23 24 25 26
13 13 14 14 14 15 17 19 19 20 21 21 19 19 20 20 20 20 22 23 23 22 23 24 25 27 28
16 16 14 14 13 14 15 16 17 19 20 19 18 19 21 22 22 23 22 21 23 24 26 27 28 29 31
18 18 17 16 15 14 15 16 20 17 20 19 19 19 21 24 23 21 20 23 25 26 28 29 30 30 31
21 19 20 16 16 16 16 17 19 19 21 20 20 22 23 23 22 20 22 24 25 29 31 31 31 31 32
22 23 20 18 17 19 18 19 20 19 21 23 21 22 24 22 20 22 24 25 28 32 32 30 30 31 31
22 21 19 19 19 20 21 22 24 22 20 22 22 23 24 22 21 23 25 25 30 31 30 29 30 31 31
23 21 21 21 21 21 21 23 23 25 19 22 23 24 26 23 22 23 25 26 33 30 28 29 32 32 33
24 23 23 22 22 21 21 22 24 24 19 21 23 24 25 26 24 24 24 29 31 29 28 32 34 35 36
26 26 25 23 22 22 21 22 21 22 18 20 24 24 25 26 26 25 27 30 27 29 30 34 36 36 34
27 27 24 23 22 21 22 22 22 21 20 20 22 22 22 24 26 27 31 28 29 26 34 35 36 35 38
27 23 22 22 21 21 21 21 24 25 21 20 20 20 23 23 24 27 27 27 28 33 35 36 35 33 32
26 25 23 21 21 17 20 23 26 25 23 21 20 19 21 23 27 25 26 27 28 31 35 37 35 32 31
24 24 23 22 22 22 23 23 24 23 23 21 22 24 25 24 17 25 27 28 29 33 34 37 37 32 31
23 23 23 22 22 22 21 22 22 21 20 19 19 21 25 26 26 22 25 29 33 35 32 32 36 37 32
Wind_Direction
9 12 13 9 8 6 8 7 8 9 12 10 1 346 337 336 337 335 329 324 322 321 318 316 315 312 309
5 6 7 8 7 4 360 358 355 356 355 354 353 350 347 345 343 340 338 334 331 327 323 320 318 317 315
355 3 6 9 3 4 2 1 359 353 349 347 346 345 345 345 343 341 339 333 330 329 327 325 323 320 316
345 350 356 1 7 359 352 354 353 352 349 348 349 350 348 345 342 339 333 330 329 330 328 325 321 318 315
332 337 342 345 348 354 352 351 350 348 346 348 348 346 343 339 335 332 332 333 331 327 324 321 319 316 314
323 325 329 334 339 343 345 343 335 346 339 338 341 338 337 335 336 338 336 332 329 326 323 321 319 317 315
315 318 321 323 330 331 334 336 334 338 336 333 335 331 334 336 336 338 335 331 329 325 322 320 319 317 315
310 312 314 320 322 324 326 329 331 333 333 325 332 330 330 334 337 335 331 331 327 323 321 322 321 319 316
310 311 313 313 315 318 318 319 319 323 329 325 327 328 330 331 331 331 330 331 326 325 325 324 324 321 318
303 306 309 310 312 312 313 311 314 317 325 322 324 328 328 334 329 329 328 328 324 325 325 325 324 322 320
297 299 302 304 308 312 312 312 310 312 323 325 323 325 328 328 330 329 330 327 326 325 325 323 322 320 319
291 292 294 298 302 305 309 311 314 314 321 323 319 323 325 327 328 331 329 327 327 322 323 322 321 320 320
287 288 292 296 299 301 305 308 309 314 317 317 317 322 325 326 328 329 328 330 326 326 323 323 322 322 320
285 289 292 293 294 296 302 307 306 307 315 318 318 321 323 326 327 326 328 328 327 323 323 323 324 325 326
284 285 288 291 292 296 300 302 302 304 306 315 320 324 324 326 326 328 328 327 326 326 324 322 325 327 329
282 284 285 287 289 292 297 299 299 301 306 312 316 320 324 328 327 327 328 327 328 326 325 323 324 331 332
279 279 282 285 287 288 292 297 298 303 307 313 318 322 322 324 330 332 332 330 325 324 328 328 324 326 336